Regional Weather Roundup
Issued by NWS

Home | Current Version | Previous Version | Text Only | Print | Product List | Glossary Off
Versions: 1 2 3 4 5 6 7 8 9 10 11 12 13 14 15 16 17 18 19 20 21 22 23 24 25 26 27 28 29 30 31 32 33 34 35 36 37 38 39 40 41 42 43 44 45 46 47 48 49 50

000
ASUS43 KMPX 250201
RWRMN
WEATHER ROUNDUP FOR MINNESOTA
NATIONAL WEATHER SERVICE TWIN CITIES/CHANHASSEN MN
900 PM CDT THU APR 24 2014


NOTE: "FAIR" INDICATES FEW OR NO CLOUDS BELOW 12,000 FEET WITH NO
SIGNIFICANT WEATHER AND/OR OBSTRUCTIONS TO VISIBILITY. N/A MEANS
CURRENT SKY AND/OR WEATHER CONDITIONS ARE NOT AVAILABLE.

MNZ060>063-068>070-250300-
   Twin Cities Metro

CITY           SKY/WX    TMP DP  RH WIND       PRES   REMARKS
TWIN CITIES    CLOUDY    45  40  82 W8        29.72R
ST PAUL        CLOUDY    45  40  82 NW9       29.73R
CRYSTAL        CLOUDY    45  39  79 W8        29.71R
BLAINE         CLOUDY    45  43  93 W7        29.71R
EDEN PRAIRIE   CLOUDY    46  39  76 NW5       29.71R
LAKEVILLE      CLOUDY    43  39  87 W5        29.71R
SOUTH ST PAUL  CLOUDY    48  41  77 W10       29.72R
LAKE ELMO      CLOUDY    43  41  93 W5        29.72R
$$
MNZ001>005-007-008-013>017-022>024-027-028-250300-
   Northwest Minnesota

CITY           SKY/WX    TMP DP  RH WIND       PRES   REMARKS
BEMIDJI        LGT SNOW  32  32 100 CALM      29.69F
HALLOCK        DRIZZLE   36  34  93 E8        29.73F
ROSEAU         LGT SNOW  34  28  80 E5        29.75S WCI  30
WARROAD        LGT SNOW  32  28  86 NE7       29.76S WCI  26
THIEF RVR FALL CLOUDY    34  30  86 NE6       29.73R WCI  29
CROOKSTON      CLOUDY    39  37  93 E3        29.73R
FOSSTON        CLOUDY    34  34 100 CALM      29.71R
DETROIT LAKES  PTCLDY    37  37 100 CALM      29.69F
MOORHEAD       MOCLDY    45  45 100 CALM      29.69R
PARK RAPIDS    CLOUDY    34  34 100 CALM      29.69R FOG
$$
MNZ006-009>011-018-025>026-250300-
   North Central Minnesota

CITY           SKY/WX    TMP DP  RH WIND       PRES   REMARKS
BAUDETTE       LGT SNOW  33  32  96 E9        29.75S FOG     WCI  25
FLAG ISLAND    LGT SNOW  34  32  93 E7        29.77S WCI  28
INTL FALLS     LGT SNOW  33  31  92 E9        29.74F FOG     WCI  25
WASKISH        LGT SNOW  34  32  93 NE5       29.72F WCI  30
LONGVILLE      LGT SNOW  32  32 100 CALM      29.70S
GRAND RAPIDS   CLOUDY    34  30  86 CALM      29.70S
CRANE LAKE     LGT SNOW  32  30  93 CALM      29.76S
ORR            MIX PCPN  32  30  93 CALM      29.70S
COOK           LGT SNOW  32  32 100 E3        29.72S
$$
MNZ012-019>021-037-250300-
   Northeast Minnesota

CITY           SKY/WX    TMP DP  RH WIND       PRES   REMARKS
DULUTH         LGT SNOW  33  31  92 E12       29.69S FOG     WCI  24
ELY            FLURRIES  34  30  86 E12G18    29.72F WCI  25
HIBBING        LGT SNOW  34  31  88 E6        29.70S FOG     WCI  29
EVELETH        MIX PCPN  32  32 100 E7        29.71S WCI  26
DULUTH HARBOR  MIX PCPN  34  30  86 NE15G22   29.73R WCI  24
TWO HARBORS    LGT SNOW  32  27  80 NE10G18   29.70F WCI  24
SILVER BAY     LGT SNOW  30  30 100 NE14G20   29.73S WCI  20
GRAND MARAIS     N/A     34  32  92 NE23G31   29.83F WCI  22
G MARAIS ARPRT MIX PCPN  30  27  86 E17G24    29.80S WCI  18
$$
MNZ029>031-032-039>041-046>048-054>057-064-250300-
   West Central Minnesota

CITY           SKY/WX    TMP DP  RH WIND       PRES   REMARKS
FERGUS FALLS   CLOUDY    45  37  76 NW7       29.65F
WHEATON        PTCLDY    48  43  81 CALM      29.73S
MORRIS         PTCLDY    45  41  87 NW6       29.70R
ALEXANDRIA     CLOUDY    43  40  89 N3        29.72R
ELBOW LAKE     FAIR      43  39  85 N8        29.69F
WADENA         CLOUDY    37  37 100 CALM      29.69S
GLENWOOD       PTCLDY    43  41  93 N5        29.71R
APPLETON       PTCLDY    45  41  87 CALM      29.71S
BENSON         MOCLDY    43  41  93 NW5       29.71R
ORTONVILLE     PTCLDY    45  39  81 CALM      29.71S
MADISON        CLEAR     46  43  87 NE5       29.73R
WILLMAR        FAIR      45  39  81 W5        29.72R
$$
MNZ033>034-036-042>043-049>051-058-059-250300-
   Central Minnesota

CITY           SKY/WX    TMP DP  RH WIND       PRES   REMARKS
ST CLOUD       CLOUDY    43  38  82 CALM      29.71R
SAUK CENTRE    FAIR      40  38  91 N3        29.70R
PAYNESVILLE    PTCLDY    42  40  90 CALM      29.71R
AITKIN         FLURRIES  34  28  80 CALM      29.69S
PINE RIVER     CLOUDY    34  34 100 CALM      29.74S FOG
BRAINERD       CLOUDY    40  33  76 CALM      29.71S
STAPLES        CLOUDY    36  36 100 CALM      29.70S
LONG PRAIRIE   MOCLDY    41  39  93 CALM      29.70F
LITTLE FALLS   CLOUDY    37  36  93 CALM      29.71R
LITCHFIELD     PTCLDY    45  43  93 CALM      29.71F
BUFFALO        MOCLDY    43  37  81 W3        29.73S
MAPLE LAKE     PTCLDY    43  40  89 CALM      29.72F
$$
MNZ037-044-045-052-053-250300-
   East Central Minnesota

CITY           SKY/WX    TMP DP  RH WIND       PRES   REMARKS
PRINCETON      CLOUDY    43  39  87 W5        29.72R
MORA           CLOUDY    34  32  93 NW3       29.72R
CAMBRIDGE      CLOUDY    41  36  81 CALM      29.70R
RUSH CITY      CLOUDY    37  35  95 CALM      29.71R
MOOSE LAKE     FLURRIES  32  32 100 CALM      29.69S
HINCKLEY       DRIZZLE   36  36 100 N3        29.70F
CLOQUET        LGT SNOW  34  32  93 E3        29.69R
MCGREGOR       CLOUDY    32  32 100 CALM      29.70F
$$
MNZ071>073-080-081-089-090-097-098-250300-
   Southwest Minnesota

CITY           SKY/WX    TMP DP  RH WIND       PRES   REMARKS
MONTEVIDEO     CLEAR     46  39  76 N3        29.73R
GRANITE FALLS  PTCLDY    47  41  80 CALM      29.74R
CANBY          CLEAR     47  45  91 CALM      29.74R
MARSHALL       CLEAR     48  39  71 CALM      29.73R
REDWOOD FALLS  PTCLDY    49  43  80 CALM      29.72S
OLIVIA         PTCLDY    45  41  87 W3        29.71S
PIPESTONE      CLEAR     52  43  71 E5        29.73R
WINDOM         MOCLDY    48  43  81 CALM      29.75R
WORTHINGTON    PTCLDY    48  37  66 S5        29.76R
JACKSON        PTCLDY    46  41  81 CALM      29.75R
TRACY          PTCLDY    49  44  83 CALM      29.74S
SLAYTON        CLEAR     47  42  84 E5        29.75R
$$
MNZ065>067-074>077-082>085-091>093-250300-
   South Central Minnesota

CITY           SKY/WX    TMP DP  RH WIND       PRES   REMARKS
MANKATO        CLEAR     46  39  76 NW7       29.74R
NEW ULM        PTCLDY    46  45  93 CALM      29.73R
ST JAMES       PTCLDY    48  43  81 W7        29.77R
FAIRMONT       PTCLDY    46  39  76 NW7       29.75R
GLENCOE        PTCLDY    45  39  78 CALM      29.72R
FARIBAULT      PTCLDY    46  39  76 NW3       29.72S
OWATONNA       MOCLDY    45  39  81 NW7       29.72R
WASECA         PTCLDY    41  36  81 CALM      29.74R
ALBERT LEA     CLOUDY    45  43  93 CALM      29.72R
$$
MNZ078>079-086>088-094>096-250300-
   Southeast Minnesota

CITY           SKY/WX    TMP DP  RH WIND       PRES   REMARKS
ROCHESTER      CLOUDY    45  39  79 NW13      29.72R
RED WING       CLOUDY    45  43  93 NW5       29.71R
STANTON        CLOUDY    46  40  80 W5        29.71R
DODGE CENTER   CLOUDY    48  43  81 NW10      29.71S
WINONA         CLOUDY    43  43 100 NW6       29.72R FOG
AUSTIN         CLOUDY    46  39  76 NW6       29.72R
PRESTON        CLOUDY    45  41  87 N7        29.72R
$$
ABBREVIATIONS USED IN REMARKS
   TC - TEMPERATURES IN CELSIUS
  WCI - WIND CHILL INDEX
   HX - HEAT INDEX
  VSB - VISIBILITY
$$


USA.gov is the U.S. government's official web portal to all federal, state and local government web resources and services.